Regional Weather Roundup
Issued by NWS

Home | Current Version | Previous Version | Text Only | Print | Product List | Glossary Off
Versions: 1 2 3 4 5 6 7 8 9 10 11 12 13 14 15 16 17 18 19 20 21 22 23 24 25 26 27 28 29 30 31 32 33 34 35 36 37 38 39 40 41 42 43 44 45 46 47 48 49 50

000
ASUS43 KBIS 220610
RWRND

NORTH DAKOTA REGIONAL WEATHER ROUNDUP
NATIONAL WEATHER SERVICE BISMARCK ND
100 AM CDT FRI SEP 22 2017

NOTE: "FAIR" INDICATES FEW OR NO CLOUDS BELOW 12,000 FEET WITH NO
SIGNIFICANT WEATHER AND/OR OBSTRUCTIONS TO VISIBILITY.


NDZ001>003-009>011-017-220700-
NORTHWEST NORTH DAKOTA

CITY           SKY/WX    TMP DP  RH WIND       PRES   REMARKS
WILLISTON      MOCLDY    50  38  63 N10       29.93R
6HR MIN TEMP:  45; 6HR MAX TEMP:  59;

MINOT          CLEAR     50  39  66 NW12      29.89R
MINOT AFB      CLEAR     47  39  73 NW9       29.88R
$$

NDZ018>021-031>035-040>046-220700-
SOUTHWEST NORTH DAKOTA

CITY           SKY/WX    TMP DP  RH WIND       PRES   REMARKS
BISMARCK       PTCLDY    58  48  69 N10       29.81S
6HR MIN TEMP:  58; 6HR MAX TEMP:  73;

DICKINSON      CLOUDY    50  37  61 N14       29.84F
GARRISON         N/A     50  40  68 N13       29.87R
6HR MIN TEMP:  47; 6HR MAX TEMP:  67;

HETTINGER ARPT CLOUDY    51  36  56 N16       29.81F
$$

NDZ004>008-012>016-024-026-027-054-220700-
NORTHEAST NORTH DAKOTA

CITY           SKY/WX    TMP DP  RH WIND       PRES   REMARKS
GRAND FORKS    CLEAR     62  59  90 NW7       29.73R
GRND FRKS AFB  CLEAR     59  56  91 N5        29.74R
DEVILS LAKE    CLEAR     56  52  86 N13       29.79F
$$

NDZ022-023-025-028>030-036>039-047>053-220700-
SOUTHEAST NORTH DAKOTA

CITY           SKY/WX    TMP DP  RH WIND       PRES   REMARKS
FARGO          CLEAR     72  69  90 SE8       29.71S
6HR MIN TEMP:  72; 6HR MAX TEMP:  77;

JAMESTOWN      CLEAR     59  53  80 N8        29.75R
$$





USA.gov is the U.S. government's official web portal to all federal, state and local government web resources and services.